Location: Columbus
(29.5618°N, 96.6770°W)
Time: 14:38:35
(UTC-05:00)

Iridium 59 - Visible Passes

Search period start: 25 October 2014 00:00
Search period end: 03 November 2014 23:00
Orbit: 776 x 779 km, 86.4° (Epoch: 25 October)

Date Brightness Start Highest point End Pass type
(mag) Time Alt. Az. Time Alt. Az. Time Alt. Az.
30 Oct 7.2 21:15:12 10° SSW 21:16:18 16° SSW 21:16:18 16° SSW visible
31 Oct 5.8 20:41:24 10° S 20:44:39 40° S 20:44:39 40° S visible
01 Nov 5.2 20:08:15 10° SSE 20:13:09 44° E 20:13:29 43° ENE visible
01 Nov 7.7 21:51:09 10° WSW 21:54:00 15° W 21:54:09 15° WNW visible
02 Nov 6.1 18:35:53 10° SE 18:39:49 22° E 18:43:45 10° NE visible
02 Nov 6.8 20:15:47 10° SW 20:20:16 29° W 20:24:47 10° NNW visible
03 Nov 6.8 18:05:31 10° E 18:06:35 11° E 18:07:39 10° ENE visible
03 Nov 5.5 19:41:33 10° SSW 19:46:39 60° W 19:51:47 10° N visible
